Home   Weather   Opfikon   Past weeks

Flag for Switzerland Past Weather in Opfikon, Zurich, Switzerland — Yesterday and Last 2 Weeks

Now
43 °F

Passing clouds.


Feels Like: 43 °F
Forecast: 26 / 47 °F
Wind: 1 mph from Southwest

Location: Zuerich-Fluntern

Current Time: Dec 9, 2016 at 2:29:20 pm

Latest Report: Dec 9, 2016 at 1:00 pm


Visibility: N/A

Pressure: 30.53 "Hg

Humidity: 62%

Dew Point: 31 °F

Location of OpfikonLocation

Past Weather in Opfikon — Graph

°F

Opfikon Temperature Yesterday

Maximum temperature yesterday: 41 °F (at 2:00 pm)
Minimum temperature yesterday: 28 °F (at 5:00 am)
Average temperature yesterday: 33 °F

High & Low Weather Summary for the Past Weeks

 TemperatureHumidityPressure
High47 °F (Nov 24, 1:00 pm)100% (Dec 1, 6:00 am)30.68 "Hg (Dec 1, 6:00 am)
Low25 °F (Nov 29, 8:00 am)54% (Nov 28, 1:00 pm)29.87 "Hg (Nov 25, 6:00 am)
Average35 °F85%30.33 "Hg
* Reported Nov 24 10:00 am — Dec 9 10:00 am, Opfikon, Weather by CustomWeather, © 2016

Note: Actual official high and low records may vary slightly from our data, if they occured in-between our weather recording intervals... More about our weather records

Advertising

Opfikon Weather History for the Previous 24 Hours

Scroll right to see more
 ConditionsComfort  
Time TempWeatherWind HumidityBarometerVisibility
10:00 am
Fri, Dec 9
33 °FChilly.1 mph85%30.60 "HgN/A
9:00 am31 °FChilly.No wind86%30.60 "HgN/A
7:00 am30 °FChilly.1 mph84%30.60 "HgN/A
6:00 am31 °FChilly.1 mph90%30.60 "HgN/A
5:00 am32 °FChilly.1 mph89%30.60 "HgN/A
4:00 am30 °FChilly.1 mph96%30.60 "HgN/A
3:00 am33 °FChilly.1 mph93%30.60 "HgN/A
2:00 am33 °FChilly.1 mph93%30.60 "HgN/A
1:00 am33 °FChilly.No wind87%30.60 "HgN/A
12:00 am32 °FChilly.1 mph92%30.61 "HgN/A
11:00 pm
Thu, Dec 8
33 °FChilly.1 mph87%30.60 "HgN/A
10:00 pm33 °FChilly.1 mph87%30.60 "HgN/A
9:00 pm34 °FChilly.1 mph83%30.59 "HgN/A
8:00 pm35 °FChilly.No wind91%30.60 "HgN/A
7:00 pm34 °FChilly.1 mph90%30.60 "HgN/A
6:00 pm35 °FChilly.1 mph85%30.59 "HgN/A
5:00 pm36 °FChilly.No wind85%30.59 "HgN/A
4:00 pm40 °FChilly.1 mph73%30.56 "HgN/A
3:00 pm40 °FChilly.2 mph71%30.56 "HgN/A
2:00 pm41 °FQuite cool.1 mph71%30.57 "HgN/A
Weather by CustomWeather, © 2016

See weather overviewHow to use our weather pages